Terug naar catalogus

STARLINK-5482

ActiefCommunicatieSSO
NORAD 56358·PAYLOAD·🇺🇸 United States

Gelanceerd Apr 27, 2023 vanaf Vandenberg Space Force Base

Loading…

Volgende Passages (komende 24 uur)

TLE

VersSource: CelesTrak SupGP

Epoch: Sep 15, 2026, 02:44 UTC

1 56358C 23058AT  26258.11437500  .00593180  00000+0  35800-1 0  2589
2 56358  97.2853 252.2939 0001882  89.3058 230.5829 15.10514306    13

Volg STARLINK-5482 in realtime met AllMySat

Download on the App Store